Minchumina, AK

2:46 AM AKDT on May 28, 2017 (GMT -0800)
Minchumina

Weather History for PAMH - December, 2012

Change the Weather History Date:

Sunday, December 30, 2012

  Actual Average Record
Temperature  
Mean Temperature 10 °F -  
Max Temperature 21 °F 0 °F 41 °F (2015)
Min Temperature -2 °F -11 °F -50 °F (1999)
Degree Days  
Heating Degree Days 56    
Moisture  
Dew Point 8 °F    
Average Humidity 85    
Maximum Humidity 100    
Minimum Humidity 72    
Precipitation  
Precipitation 0.00 in - - ()
Sea Level Pressure  
Sea Level Pressure 29.07 in    
Wind  
Wind Speed 1 mph (West)    
Max Wind Speed 5 mph    
Max Gust Speed -    
Visibility 10 miles    
Events      
Averages and records for this station are not official NWS values.
T = Trace of Precipitation, MM = Missing Value Source: NWS Daily Summary

Daily Weather History Graph

Daily Weather History Graph

Search for Another Location

Airport or City:

Trip Planner

Search our weather history database for the weather conditions in past years. The results will help you decide how hot, cold, wet, or windy it might be!

Date:

Astronomy

Dec. 30, 2012 Rise Set
Actual Time 10:58 AM AKST 3:26 PM AKST
Civil Twilight 9:42 AM AKST 4:41 PM AKST
Nautical Twilight 8:35 AM AKST 5:48 PM AKST
Astronomical Twilight 7:36 AM AKST 6:47 PM AKST
Moon 7:26 PM AKST (12/30) 11:00 AM AKST (12/30)
Length of Visible Light 6h 58m
Length of Day
4h 28m
Waning Gibbous, 94% of the Moon is Illuminated
Dec 30
Waning Gibbous
Jan 4
Last Quarter
Jan 11
New
Jan 18
First Quarter
Jan 26
Full

Hourly Weather History & Observations

Time (AKST) Temp. Windchill Dew Point Humidity Pressure Visibility Wind Dir Wind Speed Gust Speed Precip Events Conditions
12:16 AM -0.4 °F - -7.6 °F 72% 29.34 in 10.0 mi Calm Calm - N/A   Clear
12:36 AM -0.4 °F - -0.4 °F 100% 29.33 in 10.0 mi Calm Calm - N/A   Clear
12:56 AM -2.2 °F - -2.2 °F 100% 29.32 in 10.0 mi Calm Calm - N/A   Clear
1:16 AM 1.4 °F - 1.4 °F 100% 29.31 in 10.0 mi Calm Calm - N/A   Scattered Clouds
1:36 AM 1.4 °F - -4.0 °F 78% 29.30 in 10.0 mi Calm Calm - N/A   Partly Cloudy
1:56 AM 3.2 °F - 1.4 °F 92% 29.29 in 10.0 mi Calm Calm - N/A   Partly Cloudy
2:16 AM 3.2 °F - -0.4 °F 85% 29.29 in 10.0 mi Calm Calm - N/A   Partly Cloudy
2:36 AM 3.2 °F - 3.2 °F 100% 29.26 in 10.0 mi Calm Calm - N/A   Mostly Cloudy
3:16 AM 3.2 °F - 1.4 °F 92% 29.20 in 10.0 mi Calm Calm - N/A   Overcast
3:36 AM 3.2 °F -4.2 °F -0.4 °F 85% 29.19 in 10.0 mi WSW 3.5 mph - N/A   Mostly Cloudy
3:56 AM 1.4 °F - -0.4 °F 92% 29.17 in 10.0 mi Calm Calm - N/A   Partly Cloudy
4:16 AM 6.8 °F - 3.2 °F 85% 29.15 in 10.0 mi Calm Calm - N/A   Clear
4:36 AM 5.0 °F - -0.4 °F 78% 29.14 in 10.0 mi Calm Calm - N/A   Clear
4:56 AM 3.2 °F -6.2 °F 1.4 °F 92% 29.13 in 10.0 mi WSW 4.6 mph - N/A   Clear
5:16 AM 6.8 °F - 5.0 °F 92% 29.12 in 10.0 mi Calm Calm - N/A   Clear
5:36 AM 6.8 °F - 5.0 °F 92% 29.10 in 10.0 mi Calm Calm - N/A   Clear
5:56 AM 8.6 °F - 5.0 °F 85% 29.08 in 10.0 mi Calm Calm - N/A   Clear
6:16 AM 6.8 °F - 6.8 °F 100% 29.05 in 10.0 mi Calm Calm - N/A   Clear
6:36 AM 6.8 °F - 6.8 °F 100% 29.04 in 10.0 mi Calm Calm - N/A   Clear
6:56 AM 6.8 °F - 1.4 °F 79% 29.03 in 10.0 mi Calm Calm - N/A   Clear
7:16 AM 6.8 °F - 5.0 °F 92% 29.03 in 10.0 mi Calm Calm - N/A   Clear
7:36 AM 5.0 °F - 1.4 °F 85% 29.02 in 10.0 mi Calm Calm - N/A   Clear
7:56 AM 3.2 °F - 1.4 °F 92% 29.00 in 10.0 mi Calm Calm - N/A   Clear
8:16 AM 5.0 °F - 1.4 °F 85% 28.99 in 10.0 mi Calm Calm - N/A   Clear
8:36 AM 6.8 °F - 3.2 °F 85% 29.01 in 10.0 mi Calm Calm - N/A   Clear
8:56 AM 6.8 °F -0.1 °F 6.8 °F 100% 29.02 in 10.0 mi West 3.5 mph - N/A   Clear
9:16 AM 10.4 °F - 6.8 °F 85% 29.02 in 10.0 mi Calm Calm - N/A   Clear
9:36 AM 6.8 °F - 5.0 °F 92% 29.01 in 10.0 mi Calm Calm - N/A   Clear
9:56 AM 3.2 °F - -2.2 °F 78% 29.01 in 10.0 mi Calm Calm - N/A   Clear
10:16 AM 5.0 °F - 3.2 °F 92% 29.00 in 10.0 mi Calm Calm - N/A   Clear
10:36 AM 10.4 °F 4.0 °F - N/A% 28.99 in 10.0 mi WSW 3.5 mph - N/A   Clear
10:56 AM 5.0 °F - 1.4 °F 85% 28.99 in 10.0 mi Calm Calm - N/A   Clear
11:16 AM 6.8 °F - 1.4 °F 79% 28.98 in 10.0 mi Calm Calm - N/A   Clear
11:36 AM 8.6 °F - 8.6 °F 100% 28.97 in 10.0 mi Calm Calm - N/A   Clear
12:16 PM 10.4 °F 4.0 °F 3.2 °F 73% 28.94 in 10.0 mi West 3.5 mph - N/A   Clear
12:36 PM 19.4 °F 12.8 °F 15.8 °F 86% 28.95 in 10.0 mi West 4.6 mph - N/A   Clear
12:56 PM 21.2 °F 14.9 °F 17.6 °F 86% 28.95 in 10.0 mi SSW 4.6 mph - N/A   Clear
1:16 PM 19.4 °F - 15.8 °F 86% 28.95 in 10.0 mi Calm Calm - N/A   Partly Cloudy
1:36 PM 21.2 °F 14.9 °F 15.8 °F 80% 28.94 in 10.0 mi SW 4.6 mph - N/A   Scattered Clouds
1:56 PM 21.2 °F - 17.6 °F 86% 28.94 in 10.0 mi Calm Calm - N/A   Scattered Clouds
2:16 PM 19.4 °F 14.3 °F 15.8 °F 86% 28.95 in 10.0 mi WNW 3.5 mph - N/A   Scattered Clouds
2:36 PM 21.2 °F - 15.8 °F 80% 28.95 in 10.0 mi Calm Calm - N/A   Partly Cloudy
2:56 PM 21.2 °F - 15.8 °F 80% 28.96 in 10.0 mi Calm Calm - N/A   Clear
3:16 PM 19.4 °F - 15.8 °F 86% 28.96 in 10.0 mi Calm Calm - N/A   Partly Cloudy
3:36 PM 21.2 °F 14.9 °F 15.8 °F 80% 28.99 in 10.0 mi West 4.6 mph - N/A   Partly Cloudy
3:56 PM 21.2 °F 14.9 °F 15.8 °F 80% 28.97 in 10.0 mi WNW 4.6 mph - N/A   Mostly Cloudy
4:16 PM 21.2 °F 16.4 °F 15.8 °F 80% 28.98 in 10.0 mi NNW 3.5 mph - N/A   Mostly Cloudy
4:36 PM 21.2 °F - 15.8 °F 80% 29.01 in 10.0 mi Calm Calm - N/A   Partly Cloudy
4:56 PM 21.2 °F - 14.0 °F 74% 28.99 in 10.0 mi Calm Calm - N/A   Partly Cloudy
5:16 PM 21.2 °F - 15.8 °F 80% 29.01 in 10.0 mi Calm Calm - N/A   Mostly Cloudy
5:36 PM 19.4 °F - 12.2 °F 74% 29.02 in 10.0 mi Calm Calm - N/A   Scattered Clouds
5:56 PM 19.4 °F - 15.8 °F 86% 29.02 in 10.0 mi Calm Calm - N/A   Clear
6:16 PM 19.4 °F - 14.0 °F 80% 29.03 in 10.0 mi Calm Calm - N/A   Clear
6:36 PM 19.4 °F - 14.0 °F 80% 29.03 in 10.0 mi Calm Calm - N/A   Clear
6:56 PM 17.6 °F - 15.8 °F 93% 29.05 in 10.0 mi Calm Calm - N/A   Clear
7:16 PM 17.6 °F - 12.2 °F 79% 29.06 in 10.0 mi Calm Calm - N/A   Clear
7:36 PM 19.4 °F - 12.2 °F 74% 29.06 in 10.0 mi Calm Calm - N/A   Clear
7:56 PM 19.4 °F - 14.0 °F 80% 29.06 in 10.0 mi Calm Calm - N/A   Clear
8:16 PM 15.8 °F - 12.2 °F 86% 29.08 in 10.0 mi Calm Calm - N/A   Clear
8:36 PM 15.8 °F - 12.2 °F 86% 29.08 in 10.0 mi Calm Calm - N/A   Clear
8:56 PM 12.2 °F - 10.4 °F 92% 29.07 in 10.0 mi Calm Calm - N/A   Clear
9:16 PM 15.8 °F - 12.2 °F 86% 29.09 in 10.0 mi Calm Calm - N/A   Clear
9:36 PM 15.8 °F - 10.4 °F 79% 29.10 in 10.0 mi Calm Calm - N/A   Mostly Cloudy
9:56 PM 15.8 °F - 10.4 °F 79% 29.12 in 10.0 mi Calm Calm - N/A   Mostly Cloudy
10:16 PM 15.8 °F - 10.4 °F 79% 29.13 in 10.0 mi Calm Calm - N/A   Partly Cloudy
10:36 PM 15.8 °F - 10.4 °F 79% 29.14 in 10.0 mi Calm Calm - N/A   Clear
10:56 PM 15.8 °F - 12.2 °F 86% 29.15 in 10.0 mi Calm Calm - N/A   Clear
11:16 PM 15.8 °F - 12.2 °F 86% 29.16 in 10.0 mi Calm Calm - N/A   Clear
11:36 PM 17.6 °F - 12.2 °F 79% 29.17 in 10.0 mi Calm Calm - N/A   Clear
11:56 PM 17.6 °F - 12.2 °F 79% 29.18 in 10.0 mi Calm Calm - N/A   Clear